STARLINK-1185, 45087

Orbit data source: Space-Track

STARLINK-1185, 45087 is a payload satellite owned by SpaceX/Seattle (US) in LEO that was launched on Wed, 29 Jan 2020 UTC via an FALCON 9 launch vehicle from the Air Force Eastern Test Range (AFETR). Payload-class satellites include a variety of spacecraft equipped with specific instruments for various scientific and technological missions. These include communications satellites like Starlink; space stations such as the ISS; scientific satellites like the Hubble; Earth observation satellites from companies like Planet Labs, Umbra, and HawkEye 360; GPS; miniature CubeSats for education and research; and military/defense satellites.

Loading next visibility...
Identifier
45087, 2020-006AV
Orbit
LEO
Country
Flag of USUS
Related business
Manufacturer
SpaceX/Seattle
Mission
Partially operational Commercial Communications
Bus & Motor
STARLINK, Unknown motor
Mass
260 kg wet, ~248 kg dry
Launch date (UTC)
2020-01-29 (6 years ago)
Launch vehicle
FALCON 9
Launch site
Air Force Eastern Test Range (AFETR)
Object type
Payload
Rocket body
Debris
Shape & HBR
Box + 1 Pan, 10.1 m
Radar Cross Section
13.562 m², Large (>1 m²)

Expand to show TLE details & history
Last TLE update: 3 days ago

TLE from 3 days ago
0 STARLINK-1185
1 45087U 20006AV  26154.43709702  .00061056  00000-0  12527-2 0  9999
2 45087  53.1562 198.0663 0005645   0.7548 359.3467 15.45468281350307
Epoch: 2026-06-03T10:29Z
TLE epoch observation values (Epoch: 2026-06-03T10:29:25.182Z)
Latitude
-0.00002°
Longitude
148.81563°
Altitude
427.065 km
Speed
7.659 km/s
True Right ascension
13h 12m 15s
True Declination
0° 00' 00"
Sunlit
Object was in full shadow at epoch
Visualization orbit readout
Latitude
Unknown
Longitude
Unknown
Altitude
Unknown
Speed
Unknown
Apparent Right ascension
Unknown
Apparent Declination
Unknown
Sunlit
N/A
Visualization observer readout
Local Sidereal Time
03:09:36
Azimuth
Unknown
Elevation
Unknown
Doppler factor
Unknown
Orbital elements
Apogee altitude
434.105 km
Perigee altitude
426.418 km
Semi-major axis
6,808.398 km
Eccentricity
0.00056
Inclination
53.1562°
RAAN
198.0663°
Arg. of periapsis
0.7548°
True anomaly
359.34596°
Mean anomaly
359.3467°
Eccentric anomaly
359.34633°
Mean motion
3.86345 °/min
Orbital period
93.18 mins
BSTAR
0.0012527
Loading maneuver chart data...
Computing Atmospheric mass density...

Documentation

Showing up to 5 results
|